カタログに戻る

COSMOS 2251 DEB

運用中LEO
NORAD 34388·DEBRIS·🇷🇺 Russia

打ち上げ Jun 16, 1993 から Plesetsk Cosmodrome

Loading…

次のパス (今後24時間)

TLE

最新Source: Space-Track

元期: Sep 14, 2026, 11:13 UTC

1 34388U 93036QD  26257.46738787  .00001476  00000-0  38265-3 0  9994
2 34388  74.0370  65.3341 0012797  48.4982 342.5036 14.50633740921527

AllMySatでCOSMOS 2251 DEBをリアルタイム追跡

Download on the App Store